User: anonymous   Login
Location: NJAA Observatory
(40.6819°N, 74.8979°W)
Time: 19:21:39
(UTC-05:00)
Language:

Cosmos 1939 Rocket - Orbit

View from above orbital plane
View from above orbital plane
View from above satellite
View from above satellite

Ground track
Ground track

The orbit data is extracted from the following two-line orbital elements,

1 19046U 88032B   15025.22883988  .00001991  00000-0  16011-3 0  1132
2 19046 097.6189 080.5722 0042368 063.3694 297.1860 15.00433028441480
Epoch (UTC): 25 January 2015 05:29:31
Eccentricity: 0.0042368
inclination: 97.6189°
perigee height: 536 km
apogee height: 595 km
right ascension of ascending node: 80.5722°
argument of perigee: 63.3694°
revolutions per day: 15.00433028
mean anomaly at epoch: 297.1860°
orbit number at epoch: 44148

The dashed part of the orbit path shows where the satellite is in the earth's shadow,  

DLR